This is the latest recevied weather packets stored in our database for station/object 4S6DRJ-13. If no packets are shown the sender has not sent any weather packets the latest 10 day(s).
| Time | Temp. | Humidity | Pressure | Rain* | Wind** | Luminosity | Snow |
|---|---|---|---|---|---|---|---|
| 1787946496 | 27.78° C | 86% | 1010.1 hPa | 0 mm | 0.45 m/s, 229° | 0 W/m² | - |
| 1787946434 | 27.78° C | 86% | 1010 hPa | 0 mm | 1.34 m/s, 183° | 0 W/m² | - |
| 1787946373 | 27.78° C | 86% | 1009.8 hPa | 0 mm | 1.34 m/s, 231° | 0 W/m² | - |
| 1787946312 | 27.78° C | 86% | 1010 hPa | 0 mm | 0.89 m/s, 245° | 0 W/m² | - |
| 1787946251 | 27.78° C | 86% | 1009.7 hPa | 0 mm | 1.34 m/s, 223° | 0 W/m² | - |
| 1787946189 | 27.78° C | 86% | 1009.9 hPa | 0 mm | 1.79 m/s, 250° | 0 W/m² | - |
| 1787946129 | 27.78° C | 86% | 1010 hPa | 0 mm | 0.89 m/s, 262° | 0 W/m² | - |
| 1787946068 | 27.78° C | 86% | 1009.9 hPa | 0 mm | 1.79 m/s, 225° | 0 W/m² | - |
| 1787946007 | 27.78° C | 86% | 1010 hPa | 0 mm | 0.89 m/s, 161° | 0 W/m² | - |
| 1787945946 | 27.78° C | 86% | 1010.1 hPa | 0 mm | 0.89 m/s, 261° | 0 W/m² | - |
| 1787945885 | 27.78° C | 86% | 1010 hPa | 0 mm | 0.89 m/s, 234° | 0 W/m² | - |
| 1787945824 | 27.78° C | 86% | 1010.1 hPa | 0 mm | 0.89 m/s, 242° | 0 W/m² | - |
| 1787945763 | 27.78° C | 86% | 1010.2 hPa | 0 mm | 1.34 m/s, 235° | 0 W/m² | - |
| 1787945702 | 27.78° C | 86% | 1010.1 hPa | 0 mm | 0.89 m/s, 203° | 0 W/m² | - |
| 1787945641 | 27.78° C | 86% | 1009.9 hPa | 0 mm | 1.34 m/s, 312° | 0 W/m² | - |
| 1787945580 | 27.78° C | 86% | 1010 hPa | 0 mm | 0.45 m/s, 221° | 0 W/m² | - |
| 1787945519 | 27.78° C | 86% | 1009.9 hPa | 0 mm | 1.34 m/s, 126° | 0 W/m² | - |
| 1787945459 | 27.78° C | 86% | 1009.9 hPa | 0 mm | 0.89 m/s, 247° | 0 W/m² | - |
| 1787945397 | 27.78° C | 86% | 1010 hPa | 0 mm | 0.89 m/s, 143° | 0 W/m² | - |
| 1787945336 | 27.78° C | 86% | 1009.9 hPa | 0 mm | 1.79 m/s, 199° | 0 W/m² | - |
| 1787945275 | 27.78° C | 86% | 1010.1 hPa | 0 mm | 0.89 m/s, 221° | 0 W/m² | - |
| 1787945214 | 27.78° C | 85% | 1010.2 hPa | 0 mm | 0.89 m/s, 185° | 0 W/m² | - |
| 1787945153 | 27.78° C | 85% | 1010.1 hPa | 0 mm | 1.79 m/s, 170° | 0 W/m² | - |
| 1787945092 | 27.78° C | 86% | 1010.1 hPa | 0 mm | 0.89 m/s, 61° | 0 W/m² | - |
| 1787945031 | 27.78° C | 85% | 1010.2 hPa | 0 mm | 1.79 m/s, 214° | 0 W/m² | - |
* Rain latest hour (hover to see other rain measurements)
** Current wind speed in m/s (hover to see current wind gust speed)